Fryeburg, ME

3:49 AM EDT on June 25, 2017 (GMT -0400)
Eastern Slopes Regional

Weather History for KIZG - March, 2014

Change the Weather History Date:

Tuesday, March 4, 2014

  Actual Average Record
Temperature  
Mean Temperature 5 °F -  
Max Temperature 26 °F 34 °F 52 °F (2008)
Min Temperature -16 °F 14 °F -18 °F (2003)
Degree Days  
Heating Degree Days 60    
Moisture  
Dew Point -7 °F    
Average Humidity 52    
Maximum Humidity 82    
Minimum Humidity 20    
Precipitation  
Precipitation 0.00 in - - ()
Sea Level Pressure  
Sea Level Pressure 30.29 in    
Wind  
Wind Speed 2 mph (NNW)    
Max Wind Speed 9 mph    
Max Gust Speed -    
Visibility 10 miles    
Events      
Averages and records for this station are not official NWS values.
T = Trace of Precipitation, MM = Missing Value Source: NWS Daily Summary

Daily Weather History Graph

Daily Weather History Graph

Search for Another Location

Airport or City:

Trip Planner

Search our weather history database for the weather conditions in past years. The results will help you decide how hot, cold, wet, or windy it might be!

Date:

Astronomy

Mar. 04, 2014 Rise Set
Actual Time 6:15 AM EST 5:36 PM EST
Civil Twilight 5:46 AM EST 6:04 PM EST
Nautical Twilight 5:13 AM EST 6:38 PM EST
Astronomical Twilight 4:39 AM EST 7:11 PM EST
Moon 7:51 AM EST (3/4) 9:49 PM EST (3/4)
Length of Visible Light 12h 18m
Length of Day
11h 20m
Waxing Crescent, 14% of the Moon is Illuminated
Mar 4
Waxing Crescent
Mar 8
First Quarter
Mar 16
Full
Mar 23
Last Quarter
Mar 30
New

Hourly Weather History & Observations

Time (EST) Temp. Windchill Dew Point Humidity Pressure Visibility Wind Dir Wind Speed Gust Speed Precip Events Conditions
12:54 AM -7.1 °F -15.9 °F -14.1 °F 72% 30.29 in 10.0 mi WNW 3.5 mph - N/A   Clear
1:54 AM -9.9 °F - -15.0 °F 78% 30.30 in 10.0 mi Calm Calm - N/A   Clear
2:54 AM -11.0 °F - -16.1 °F 78% 30.30 in 10.0 mi Calm Calm - N/A   Clear
3:54 AM -11.9 °F - -17.0 °F 78% 30.31 in 10.0 mi Calm Calm - N/A   Clear
4:54 AM -14.1 °F - -18.0 °F 82% 30.32 in 10.0 mi Calm Calm - N/A   Clear
5:54 AM -16.1 °F -26.2 °F -20.9 °F 79% 30.35 in 10.0 mi West 3.5 mph - N/A   Clear
6:54 AM -11.0 °F - -17.0 °F 75% 30.35 in 10.0 mi Calm Calm - N/A   Clear
7:54 AM -2.9 °F - -9.9 °F 72% 30.36 in 10.0 mi Calm Calm - N/A   Clear
8:54 AM 5.0 °F - -9.0 °F 52% 30.35 in 10.0 mi Calm Calm - N/A   Clear
9:54 AM 12.0 °F - -9.9 °F 37% 30.34 in 10.0 mi Calm Calm - N/A   Clear
10:54 AM 19.0 °F 13.9 °F -11.9 °F 25% 30.32 in 10.0 mi ENE 3.5 mph - N/A   Partly Cloudy
11:54 AM 21.9 °F - -9.0 °F 25% 30.29 in 10.0 mi Calm Calm - N/A   Mostly Cloudy
12:54 PM 24.1 °F 17.0 °F -11.9 °F 20% 30.25 in 10.0 mi Variable 5.8 mph - N/A   Clear
1:54 PM 25.0 °F 19.3 °F -11.0 °F 20% 30.23 in 10.0 mi Variable 4.6 mph - N/A   Clear
2:54 PM 26.1 °F 18.4 °F -9.0 °F 21% 30.23 in 10.0 mi South 6.9 mph - N/A   Mostly Cloudy
3:54 PM 26.1 °F 20.5 °F -7.1 °F 23% 30.23 in 10.0 mi SW 4.6 mph - N/A   Mostly Cloudy
4:54 PM 25.0 °F 15.5 °F -5.1 °F 27% 30.24 in 10.0 mi North 9.2 mph - N/A   Overcast
5:54 PM 21.9 °F 14.5 °F 3.0 °F 44% 30.26 in 10.0 mi NW 5.8 mph - N/A   Overcast
6:54 PM 21.9 °F 17.2 °F 3.9 °F 46% 30.27 in 10.0 mi NNE 3.5 mph - N/A   Overcast
7:54 PM 19.9 °F 11.1 °F 5.0 °F 52% 30.27 in 10.0 mi NNE 6.9 mph - N/A   Overcast
8:54 PM 19.0 °F 13.9 °F 5.0 °F 54% 30.27 in 10.0 mi North 3.5 mph - N/A   Overcast
9:54 PM 18.0 °F - 5.0 °F 57% 30.28 in 10.0 mi Calm Calm - N/A   Scattered Clouds
10:54 PM 17.1 °F - 6.1 °F 62% 30.27 in 10.0 mi Calm Calm - N/A   Partly Cloudy
11:54 PM 15.1 °F - 6.1 °F 68% 30.27 in 10.0 mi Calm Calm - N/A   Partly Cloudy